This is the latest recevied weather packets stored in our database for station/object KN4MGS. If no packets are shown the sender has not sent any weather packets the latest 10 day(s).
| Time | Temp. | Humidity | Pressure | Rain* | Wind** | Luminosity | Snow |
|---|---|---|---|---|---|---|---|
| 1777827850 | 18.33° C | 44% | 1023.6 hPa | 0 mm | - | 775 W/m² | - |
| 1777827547 | 18.89° C | 45% | 1023.6 hPa | 0 mm | - | 755 W/m² | - |
| 1777827244 | 18.89° C | 45% | 1023.5 hPa | 0 mm | - | 752 W/m² | - |
| 1777826940 | 17.22° C | 45% | 1023.7 hPa | 0 mm | - | 741 W/m² | - |
| 1777826638 | 17.78° C | 44% | 1024 hPa | 0 mm | - | 730 W/m² | - |
| 1777826334 | 17.78° C | 46% | 1024 hPa | 0 mm | - | 730 W/m² | - |
| 1777826032 | 17.78° C | 45% | 1023.9 hPa | 0 mm | - | 682 W/m² | - |
| 1777825728 | 17.78° C | 45% | 1023.8 hPa | 0 mm | - | 611 W/m² | - |
| 1777825426 | 18.33° C | 46% | 1023.9 hPa | 0 mm | - | 659 W/m² | - |
| 1777825123 | 17.78° C | 46% | 1023.9 hPa | 0 mm | - | 728 W/m² | - |
| 1777824819 | 17.22° C | 47% | 1024.1 hPa | 0 mm | - | 706 W/m² | - |
| 1777824516 | 17.22° C | 47% | 1024 hPa | 0 mm | - | 744 W/m² | - |
| 1777824212 | 17.22° C | 47% | 1024.3 hPa | 0 mm | - | 744 W/m² | - |
| 1777823908 | 17.22° C | 47% | 1024.1 hPa | 0 mm | - | 732 W/m² | - |
| 1777823606 | 17.22° C | 45% | 1024.1 hPa | 0 mm | - | 744 W/m² | - |
| 1777823302 | 16.67° C | 50% | 1024.2 hPa | 0 mm | - | 684 W/m² | - |
| 1777823000 | 16.11° C | 49% | 1024.5 hPa | 0 mm | - | 664 W/m² | - |
| 1777822698 | 16.67° C | 45% | 1024.3 hPa | 0 mm | - | 696 W/m² | - |
| 1777822396 | 17.22° C | 47% | 1024.4 hPa | 0 mm | - | 730 W/m² | - |
| 1777822093 | 16.67° C | 49% | 1024.5 hPa | 0 mm | - | 757 W/m² | - |
| 1777821791 | 17.22° C | 47% | 1024.4 hPa | 0 mm | - | 718 W/m² | - |
| 1777821488 | 16.67° C | 47% | 1024.6 hPa | 0 mm | - | 737 W/m² | - |
| 1777821185 | 16.67° C | 49% | 1024.8 hPa | 0 mm | - | 773 W/m² | - |
| 1777820882 | 15.56° C | 50% | 1024.4 hPa | 0 mm | - | 723 W/m² | - |
| 1777820578 | 16.11° C | 48% | 1024.6 hPa | 0 mm | - | 771 W/m² | - |
* Rain latest hour (hover to see other rain measurements)
** Current wind speed in m/s (hover to see current wind gust speed)